Location: Newark
(9.4667°S, 159.8167°E)
Time: 17:50:25
(UTC+00:00)

Vanguard 1 - Pass Details

Date: 15 November 2019
Orbit: 652 x 3831 km, 34.2° (Epoch: 05 December)

Event Time Altitude Azimuth Distance (km) Brightness Sun altitude
Rises 16:34:44 0° 236° (SW) 7,414 14.3 -31.3°
Reaches altitude 10° 16:40:09 10° 228° (SW) 6,661 14.1 -30.1°
Maximum altitude 17:01:41 42° 162° (SSE) 4,693 13.7 -25.4°
Drops below altitude 10° 17:20:00 10° 96° (E) 5,817 15.0 -21.3°
Sets 17:24:13 0° 89° (E) 6,457 15.4 -20.3°
